Starlink 11501

operational
NORAD ID: 62268 Int'l Des: 2024-237 Owner: SPXS Country: US Constellation: starlink
LEOCIRCULAR

Über Starlink 11501

Beschreibung wird geladen...

Live-Position

3D-Globus wird geladen...

Nächste Überflüge

Höhenverlauf

Altitude vs Time

uPlot chart will show altitude changes over time

Zweizeiliger Elementsatz

1 62268U 24237B 25305.50703519 .00231819 00000-0 17564-2 0 9996
2 62268 43.0006 109.1512 0001899 250.8422 109.2240 15.70891289 52845
Epoch: 1. Nov. 2025 • Age: 11 hours

Aktueller Status

Höhe 355.5 km
Geschwindigkeit 7.70 km/s
Subsatellitenpunkt -2.58°S, 106.9°W
Startdatum 8. Dez. 2024
Alter 0.8 years
Typ internet

Technische Details

Klassifizierung Payload
Masse 960.00 kg
Trockenmasse 910.00 kg
Gesamtmasse 960.00 kg
Länge 0.30 m
Durchmesser 4.10 m
Spannweite 29.00 m
Form Box + pan
Hersteller SPXS
Bus-Typ Starlink V2MD
Phasenstatus In Orbit
Besitzer/Staat SPXS/US

Große Konstellationen

Loading constellations...